Time,TemperatureF,DewpointF,PressureIn,WindDirection,WindDirectionDegrees,WindSpeedMPH,WindSpeedGustMPH,Humidity,HourlyPrecipIn,Conditions,Clouds,dailyrainin,SoftwareType,DateUTC
2013-04-11 00:02:00,51.2,32.7,29.97,N/A,-737280,0.0,-999.0,49,0.00,,,0.00,Wunderground v.1.15,2013-04-11 07:02:00,
2013-04-11 00:07:00,51.2,32.7,29.97,N/A,-737280,0.0,-999.0,49,0.00,,,0.00,Wunderground v.1.15,2013-04-11 07:07:00,
2013-04-11 00:12:00,51.2,32.7,29.97,N/A,-737280,0.0,-999.0,49,0.00,,,0.00,Wunderground v.1.15,2013-04-11 07:12:00,
2013-04-11 00:17:00,50.7,32.7,29.97,N/A,-737280,0.0,-999.0,50,0.00,,,0.00,Wunderground v.1.15,2013-04-11 07:17:00,
2013-04-11 00:22:00,50.7,32.7,29.97,N/A,-737280,0.0,-999.0,50,0.00,,,0.00,Wunderground v.1.15,2013-04-11 07:22:00,
2013-04-11 00:27:00,50.2,33.2,29.97,N/A,-737280,0.0,-999.0,52,0.00,,,0.00,Wunderground v.1.15,2013-04-11 07:27:00,
2013-04-11 00:32:00,50.2,33.2,29.97,N/A,-737280,0.0,-999.0,52,0.00,,,0.00,Wunderground v.1.15,2013-04-11 07:32:00,
2013-04-11 00:37:00,49.7,32.8,29.97,N/A,-737280,0.0,-999.0,52,0.00,,,0.00,Wunderground v.1.15,2013-04-11 07:37:00,
2013-04-11 00:42:00,49.7,32.8,29.97,N/A,-737280,0.0,-999.0,52,0.00,,,0.00,Wunderground v.1.15,2013-04-11 07:42:00,
2013-04-11 00:47:00,49.6,32.7,29.97,N/A,-737280,0.0,-999.0,52,0.00,,,0.00,Wunderground v.1.15,2013-04-11 07:47:00,
2013-04-11 00:52:00,49.6,32.7,29.97,N/A,-737280,0.0,-999.0,52,0.00,,,0.00,Wunderground v.1.15,2013-04-11 07:52:00,
2013-04-11 00:57:00,49.5,33.1,29.97,N/A,-737280,0.0,-999.0,53,0.00,,,0.00,Wunderground v.1.15,2013-04-11 07:57:00,
2013-04-11 01:02:00,49.5,33.1,29.97,N/A,-737280,0.0,-999.0,53,0.00,,,0.00,Wunderground v.1.15,2013-04-11 08:02:00,
2013-04-11 01:07:00,49.2,32.8,29.97,N/A,-737280,0.0,-999.0,53,0.00,,,0.00,Wunderground v.1.15,2013-04-11 08:07:00,
2013-04-11 01:12:00,49.2,32.8,29.97,N/A,-737280,0.0,-999.0,53,0.00,,,0.00,Wunderground v.1.15,2013-04-11 08:12:00,
2013-04-11 01:17:00,49.0,33.1,29.96,N/A,-737280,0.0,-999.0,54,0.00,,,0.00,Wunderground v.1.15,2013-04-11 08:17:00,
2013-04-11 01:22:00,49.0,33.1,29.96,N/A,-737280,0.0,-999.0,54,0.00,,,0.00,Wunderground v.1.15,2013-04-11 08:22:00,
2013-04-11 01:27:00,48.9,32.5,29.96,N/A,-737280,0.0,-999.0,53,0.00,,,0.00,Wunderground v.1.15,2013-04-11 08:27:00,
2013-04-11 01:32:00,48.9,32.5,29.96,N/A,-737280,0.0,-999.0,53,0.00,,,0.00,Wunderground v.1.15,2013-04-11 08:32:00,
2013-04-11 01:37:00,48.8,32.9,29.96,N/A,-737280,0.0,-999.0,54,0.00,,,0.00,Wunderground v.1.15,2013-04-11 08:37:00,
2013-04-11 01:42:00,48.8,32.9,29.96,N/A,-737280,0.0,-999.0,54,0.00,,,0.00,Wunderground v.1.15,2013-04-11 08:42:00,
2013-04-11 01:47:00,48.6,33.1,29.96,N/A,-737280,0.0,-999.0,55,0.00,,,0.00,Wunderground v.1.15,2013-04-11 08:47:00,
2013-04-11 01:52:00,48.6,33.1,29.96,N/A,-737280,0.0,-999.0,55,0.00,,,0.00,Wunderground v.1.15,2013-04-11 08:52:00,
2013-04-11 01:57:00,48.2,33.2,29.96,N/A,-737280,0.0,-999.0,56,0.00,,,0.00,Wunderground v.1.15,2013-04-11 08:57:00,
2013-04-11 02:02:00,48.2,33.2,29.96,N/A,-737280,0.0,-999.0,56,0.00,,,0.00,Wunderground v.1.15,2013-04-11 09:02:00,
2013-04-11 02:07:00,47.7,33.2,29.95,N/A,-737280,0.0,-999.0,57,0.00,,,0.00,Wunderground v.1.15,2013-04-11 09:07:00,
2013-04-11 02:12:00,47.7,33.2,29.95,N/A,-737280,0.0,-999.0,57,0.00,,,0.00,Wunderground v.1.15,2013-04-11 09:12:00,
2013-04-11 02:17:00,47.3,33.3,29.94,N/A,-737280,0.0,-999.0,58,0.00,,,0.00,Wunderground v.1.15,2013-04-11 09:17:00,
2013-04-11 02:22:00,47.3,33.3,29.94,N/A,-737280,0.0,-999.0,58,0.00,,,0.00,Wunderground v.1.15,2013-04-11 09:22:00,
2013-04-11 02:27:00,47.0,33.4,29.94,N/A,-737280,0.0,-999.0,59,0.00,,,0.00,Wunderground v.1.15,2013-04-11 09:27:00,
2013-04-11 02:32:00,47.0,33.4,29.94,N/A,-737280,0.0,-999.0,59,0.00,,,0.00,Wunderground v.1.15,2013-04-11 09:32:00,
2013-04-11 02:37:00,46.6,33.0,29.94,N/A,-737280,0.0,-999.0,59,0.00,,,0.00,Wunderground v.1.15,2013-04-11 09:37:00,
2013-04-11 02:42:00,46.6,33.0,29.94,N/A,-737280,0.0,-999.0,59,0.00,,,0.00,Wunderground v.1.15,2013-04-11 09:42:00,
2013-04-11 02:47:00,46.9,32.9,29.94,N/A,-737280,0.0,-999.0,58,0.00,,,0.00,Wunderground v.1.15,2013-04-11 09:47:00,
2013-04-11 02:52:00,46.9,32.9,29.94,N/A,-737280,0.0,-999.0,58,0.00,,,0.00,Wunderground v.1.15,2013-04-11 09:52:00,
2013-04-11 02:57:00,47.2,33.2,29.94,N/A,-737280,0.0,-999.0,58,0.00,,,0.00,Wunderground v.1.15,2013-04-11 09:57:00,
2013-04-11 03:02:00,47.2,33.2,29.94,N/A,-737280,0.0,-999.0,58,0.00,,,0.00,Wunderground v.1.15,2013-04-11 10:02:00,
2013-04-11 03:07:00,47.4,32.9,29.93,N/A,-737280,0.0,-999.0,57,0.00,,,0.00,Wunderground v.1.15,2013-04-11 10:07:00,
2013-04-11 03:12:00,47.4,32.9,29.93,N/A,-737280,0.0,-999.0,57,0.00,,,0.00,Wunderground v.1.15,2013-04-11 10:12:00,
2013-04-11 03:17:00,47.4,32.5,29.94,NNE,23,0.0,-999.0,56,0.00,,,0.00,Wunderground v.1.15,2013-04-11 10:17:00,
2013-04-11 03:22:00,47.4,32.5,29.94,NNE,23,0.0,-999.0,56,0.00,,,0.00,Wunderground v.1.15,2013-04-11 10:22:00,
2013-04-11 03:27:00,47.4,31.6,29.93,NNE,23,0.0,-999.0,54,0.00,,,0.00,Wunderground v.1.15,2013-04-11 10:27:00,
2013-04-11 03:32:00,47.4,31.6,29.93,NNE,23,0.0,-999.0,54,0.00,,,0.00,Wunderground v.1.15,2013-04-11 10:32:00,
2013-04-11 03:37:00,47.5,31.7,29.93,NNE,23,1.0,-999.0,54,0.00,,,0.00,Wunderground v.1.15,2013-04-11 10:37:00,
2013-04-11 03:42:00,47.5,31.7,29.93,NNE,23,1.0,-999.0,54,0.00,,,0.00,Wunderground v.1.15,2013-04-11 10:42:00,
2013-04-11 03:47:00,47.6,31.3,29.93,NE,45,1.0,-999.0,53,0.00,,,0.00,Wunderground v.1.15,2013-04-11 10:47:00,
2013-04-11 03:52:00,47.6,31.3,29.93,NE,45,1.0,-999.0,53,0.00,,,0.00,Wunderground v.1.15,2013-04-11 10:52:00,
2013-04-11 03:57:00,47.6,31.3,29.93,NE,45,1.0,-999.0,53,0.00,,,0.00,Wunderground v.1.15,2013-04-11 10:57:00,
2013-04-11 04:02:00,47.6,31.3,29.93,NE,45,1.0,-999.0,53,0.00,,,0.00,Wunderground v.1.15,2013-04-11 11:02:00,
2013-04-11 04:07:00,47.2,31.4,29.93,NE,45,0.0,-999.0,54,0.00,,,0.00,Wunderground v.1.15,2013-04-11 11:07:00,
2013-04-11 04:12:00,47.2,31.4,29.93,NE,45,0.0,-999.0,54,0.00,,,0.00,Wunderground v.1.15,2013-04-11 11:12:00,
2013-04-11 04:17:00,46.7,30.5,29.93,NE,45,2.0,-999.0,53,0.00,,,0.00,Wunderground v.1.15,2013-04-11 11:17:00,
2013-04-11 04:22:00,46.7,30.5,29.93,NE,45,2.0,-999.0,53,0.00,,,0.00,Wunderground v.1.15,2013-04-11 11:22:00,
2013-04-11 04:27:00,47.0,30.3,29.93,NE,45,1.0,-999.0,52,0.00,,,0.00,Wunderground v.1.15,2013-04-11 11:27:00,
2013-04-11 04:32:00,47.0,30.3,29.93,NE,45,1.0,-999.0,52,0.00,,,0.00,Wunderground v.1.15,2013-04-11 11:32:00,
2013-04-11 04:37:00,47.2,30.0,29.93,NE,45,3.0,-999.0,51,0.00,,,0.00,Wunderground v.1.15,2013-04-11 11:37:00,
2013-04-11 04:42:00,47.2,30.0,29.93,NE,45,3.0,-999.0,51,0.00,,,0.00,Wunderground v.1.15,2013-04-11 11:42:00,
2013-04-11 04:47:00,47.5,29.8,29.93,ESE,113,2.0,-999.0,50,0.00,,,0.00,Wunderground v.1.15,2013-04-11 11:47:00,
2013-04-11 04:52:00,47.5,29.8,29.93,ESE,113,2.0,-999.0,50,0.00,,,0.00,Wunderground v.1.15,2013-04-11 11:52:00,
2013-04-11 04:57:00,47.4,29.7,29.93,ESE,113,4.0,-999.0,50,0.00,,,0.00,Wunderground v.1.15,2013-04-11 11:57:00,
2013-04-11 05:02:00,47.4,29.7,29.93,ESE,113,4.0,-999.0,50,0.00,,,0.00,Wunderground v.1.15,2013-04-11 12:02:00,
2013-04-11 05:07:00,47.5,29.3,29.93,ESE,113,4.0,-999.0,49,0.00,,,0.00,Wunderground v.1.15,2013-04-11 12:07:00,
2013-04-11 05:12:00,47.5,29.3,29.93,ESE,113,4.0,-999.0,49,0.00,,,0.00,Wunderground v.1.15,2013-04-11 12:12:00,
2013-04-11 05:17:00,47.6,29.4,29.93,ESE,113,3.0,-999.0,49,0.00,,,0.00,Wunderground v.1.15,2013-04-11 12:17:00,
2013-04-11 05:22:00,47.6,29.4,29.93,ESE,113,3.0,-999.0,49,0.00,,,0.00,Wunderground v.1.15,2013-04-11 12:22:00,
2013-04-11 05:27:00,47.6,29.4,29.94,ESE,113,4.0,-999.0,49,0.00,,,0.00,Wunderground v.1.15,2013-04-11 12:27:00,
2013-04-11 05:32:00,47.6,29.4,29.94,ESE,113,4.0,-999.0,49,0.00,,,0.00,Wunderground v.1.15,2013-04-11 12:32:00,
2013-04-11 05:37:00,47.6,29.4,29.93,ESE,113,4.0,-999.0,49,0.00,,,0.00,Wunderground v.1.15,2013-04-11 12:37:00,
2013-04-11 05:42:00,47.6,29.4,29.93,ESE,113,4.0,-999.0,49,0.00,,,0.00,Wunderground v.1.15,2013-04-11 12:42:00,
2013-04-11 05:47:00,47.5,29.3,29.93,ESE,113,3.0,-999.0,49,0.00,,,0.00,Wunderground v.1.15,2013-04-11 12:47:00,
2013-04-11 05:52:00,47.5,29.3,29.93,ESE,113,3.0,-999.0,49,0.00,,,0.00,Wunderground v.1.15,2013-04-11 12:52:00,
2013-04-11 05:57:00,47.3,29.1,29.94,ESE,113,2.0,-999.0,49,0.00,,,0.00,Wunderground v.1.15,2013-04-11 12:57:00,
2013-04-11 06:02:00,47.3,29.1,29.94,ESE,113,2.0,-999.0,49,0.00,,,0.00,Wunderground v.1.15,2013-04-11 13:02:00,
2013-04-11 06:07:00,47.2,29.5,29.94,ESE,113,1.0,-999.0,50,0.00,,,0.00,Wunderground v.1.15,2013-04-11 13:07:00,
2013-04-11 06:12:00,47.2,29.5,29.94,ESE,113,1.0,-999.0,50,0.00,,,0.00,Wunderground v.1.15,2013-04-11 13:12:00,
2013-04-11 06:17:00,47.3,29.6,29.94,ESE,113,0.0,-999.0,50,0.00,,,0.00,Wunderground v.1.15,2013-04-11 13:17:00,
2013-04-11 06:22:00,47.3,29.6,29.94,ESE,113,0.0,-999.0,50,0.00,,,0.00,Wunderground v.1.15,2013-04-11 13:22:00,
2013-04-11 06:27:00,47.2,29.5,29.94,ESE,113,1.0,-999.0,50,0.00,,,0.00,Wunderground v.1.15,2013-04-11 13:27:00,
2013-04-11 06:32:00,47.2,29.5,29.94,ESE,113,1.0,-999.0,50,0.00,,,0.00,Wunderground v.1.15,2013-04-11 13:32:00,
2013-04-11 06:37:00,47.8,29.0,29.94,ESE,113,3.0,-999.0,48,0.00,,,0.00,Wunderground v.1.15,2013-04-11 13:37:00,
2013-04-11 06:42:00,47.8,29.0,29.94,ESE,113,3.0,-999.0,48,0.00,,,0.00,Wunderground v.1.15,2013-04-11 13:42:00,
2013-04-11 06:47:00,48.8,29.4,29.95,ESE,113,4.0,-999.0,47,0.00,,,0.00,Wunderground v.1.15,2013-04-11 13:47:00,
2013-04-11 06:52:00,48.8,29.4,29.95,ESE,113,4.0,-999.0,47,0.00,,,0.00,Wunderground v.1.15,2013-04-11 13:52:00,
2013-04-11 06:57:00,49.7,29.2,29.95,SE,135,4.0,-999.0,45,0.00,,,0.00,Wunderground v.1.15,2013-04-11 13:57:00,
2013-04-11 07:02:00,49.7,29.2,29.95,SE,135,4.0,-999.0,45,0.00,,,0.00,Wunderground v.1.15,2013-04-11 14:02:00,
2013-04-11 07:07:00,50.7,29.6,29.95,SE,135,4.0,-999.0,44,0.00,,,0.00,Wunderground v.1.15,2013-04-11 14:07:00,
2013-04-11 07:12:00,50.7,29.6,29.95,SE,135,4.0,-999.0,44,0.00,,,0.00,Wunderground v.1.15,2013-04-11 14:12:00,
2013-04-11 07:17:00,51.5,29.7,29.95,SE,135,6.0,-999.0,43,0.00,,,0.00,Wunderground v.1.15,2013-04-11 14:17:00,
2013-04-11 07:22:00,51.5,29.7,29.95,SE,135,6.0,-999.0,43,0.00,,,0.00,Wunderground v.1.15,2013-04-11 14:22:00,
2013-04-11 07:27:00,52.2,29.8,29.95,SE,135,6.0,-999.0,42,0.00,,,0.00,Wunderground v.1.15,2013-04-11 14:27:00,
2013-04-11 07:32:00,52.2,29.8,29.95,SE,135,6.0,-999.0,42,0.00,,,0.00,Wunderground v.1.15,2013-04-11 14:32:00,
2013-04-11 07:37:00,53.1,30.0,29.95,SE,135,5.0,-999.0,41,0.00,,,0.00,Wunderground v.1.15,2013-04-11 14:37:00,
2013-04-11 07:42:00,53.1,30.0,29.95,SE,135,5.0,-999.0,41,0.00,,,0.00,Wunderground v.1.15,2013-04-11 14:42:00,
2013-04-11 07:47:00,54.0,29.6,29.95,SE,135,5.0,-999.0,39,0.00,,,0.00,Wunderground v.1.15,2013-04-11 14:47:00,
2013-04-11 07:52:00,54.0,29.6,29.95,SE,135,5.0,-999.0,39,0.00,,,0.00,Wunderground v.1.15,2013-04-11 14:52:00,
2013-04-11 07:57:00,54.8,30.3,29.95,SE,135,4.0,-999.0,39,0.00,,,0.00,Wunderground v.1.15,2013-04-11 14:57:00,
2013-04-11 08:02:00,54.8,30.3,29.95,SE,135,4.0,-999.0,39,0.00,,,0.00,Wunderground v.1.15,2013-04-11 15:02:00,
2013-04-11 08:07:00,56.0,30.7,29.96,SE,135,3.0,-999.0,38,0.00,,,0.00,Wunderground v.1.15,2013-04-11 15:07:00,
2013-04-11 08:12:00,56.0,30.7,29.96,SE,135,3.0,-999.0,38,0.00,,,0.00,Wunderground v.1.15,2013-04-11 15:12:00,
2013-04-11 08:17:00,57.0,31.0,29.96,SE,135,4.0,-999.0,37,0.00,,,0.00,Wunderground v.1.15,2013-04-11 15:17:00,
2013-04-11 08:22:00,57.0,31.0,29.96,SE,135,4.0,-999.0,37,0.00,,,0.00,Wunderground v.1.15,2013-04-11 15:22:00,
2013-04-11 08:27:00,57.9,31.8,29.96,SE,135,5.0,-999.0,37,0.00,,,0.00,Wunderground v.1.15,2013-04-11 15:27:00,
2013-04-11 08:32:00,57.9,31.8,29.96,SE,135,5.0,-999.0,37,0.00,,,0.00,Wunderground v.1.15,2013-04-11 15:32:00,
2013-04-11 08:37:00,58.8,31.9,29.95,SE,135,4.0,-999.0,36,0.00,,,0.00,Wunderground v.1.15,2013-04-11 15:37:00,
2013-04-11 08:42:00,58.8,31.9,29.95,SE,135,4.0,-999.0,36,0.00,,,0.00,Wunderground v.1.15,2013-04-11 15:42:00,
2013-04-11 08:47:00,59.9,31.4,29.95,SE,135,5.0,-999.0,34,0.00,,,0.00,Wunderground v.1.15,2013-04-11 15:47:00,
2013-04-11 08:52:00,59.9,31.4,29.95,SE,135,5.0,-999.0,34,0.00,,,0.00,Wunderground v.1.15,2013-04-11 15:52:00,
2013-04-11 08:57:00,61.0,31.7,29.95,SE,135,4.0,-999.0,33,0.00,,,0.00,Wunderground v.1.15,2013-04-11 15:57:00,
2013-04-11 09:02:00,61.0,31.7,29.95,SE,135,4.0,-999.0,33,0.00,,,0.00,Wunderground v.1.15,2013-04-11 16:02:00,
2013-04-11 09:07:00,62.1,31.9,29.95,SE,135,5.0,-999.0,32,0.00,,,0.00,Wunderground v.1.15,2013-04-11 16:07:00,
2013-04-11 09:12:00,62.1,31.9,29.95,SE,135,5.0,-999.0,32,0.00,,,0.00,Wunderground v.1.15,2013-04-11 16:12:00,
2013-04-11 09:17:00,62.9,31.8,29.95,SSE,158,5.0,-999.0,31,0.00,,,0.00,Wunderground v.1.15,2013-04-11 16:17:00,
2013-04-11 09:22:00,62.9,31.8,29.95,SSE,158,5.0,-999.0,31,0.00,,,0.00,Wunderground v.1.15,2013-04-11 16:22:00,
2013-04-11 09:27:00,63.6,31.6,29.95,SE,135,5.0,-999.0,30,0.00,,,0.00,Wunderground v.1.15,2013-04-11 16:27:00,
2013-04-11 09:32:00,63.6,31.6,29.95,SE,135,5.0,-999.0,30,0.00,,,0.00,Wunderground v.1.15,2013-04-11 16:32:00,
2013-04-11 09:37:00,64.4,31.4,29.95,SE,135,4.0,-999.0,29,0.00,,,0.00,Wunderground v.1.15,2013-04-11 16:37:00,
2013-04-11 09:42:00,64.4,31.4,29.95,SE,135,4.0,-999.0,29,0.00,,,0.00,Wunderground v.1.15,2013-04-11 16:42:00,
2013-04-11 09:47:00,65.5,31.5,29.95,ESE,113,4.0,-999.0,28,0.00,,,0.00,Wunderground v.1.15,2013-04-11 16:47:00,
2013-04-11 09:52:00,65.5,31.5,29.95,ESE,113,4.0,-999.0,28,0.00,,,0.00,Wunderground v.1.15,2013-04-11 16:52:00,
2013-04-11 09:57:00,66.2,30.3,29.94,SSE,158,4.0,-999.0,26,0.00,,,0.00,Wunderground v.1.15,2013-04-11 16:57:00,
2013-04-11 10:02:00,66.2,30.3,29.94,SSE,158,4.0,-999.0,26,0.00,,,0.00,Wunderground v.1.15,2013-04-11 17:02:00,
2013-04-11 10:07:00,66.6,30.6,29.93,ESE,113,3.0,-999.0,26,0.00,,,0.00,Wunderground v.1.15,2013-04-11 17:07:00,
2013-04-11 10:12:00,66.6,30.6,29.93,ESE,113,3.0,-999.0,26,0.00,,,0.00,Wunderground v.1.15,2013-04-11 17:12:00,
2013-04-11 10:17:00,67.4,30.3,29.93,ESE,113,3.0,-999.0,25,0.00,,,0.00,Wunderground v.1.15,2013-04-11 17:17:00,
2013-04-11 10:22:00,67.4,30.3,29.93,ESE,113,3.0,-999.0,25,0.00,,,0.00,Wunderground v.1.15,2013-04-11 17:22:00,
2013-04-11 10:27:00,67.9,29.7,29.93,ESE,113,4.0,-999.0,24,0.00,,,0.00,Wunderground v.1.15,2013-04-11 17:27:00,
2013-04-11 10:32:00,67.9,29.7,29.93,ESE,113,4.0,-999.0,24,0.00,,,0.00,Wunderground v.1.15,2013-04-11 17:32:00,
2013-04-11 10:37:00,68.3,29.0,29.93,SE,135,4.0,-999.0,23,0.00,,,0.00,Wunderground v.1.15,2013-04-11 17:37:00,
2013-04-11 10:42:00,68.3,29.0,29.93,SE,135,4.0,-999.0,23,0.00,,,0.00,Wunderground v.1.15,2013-04-11 17:42:00,
2013-04-11 10:47:00,68.7,29.4,29.92,SE,135,3.0,-999.0,23,0.00,,,0.00,Wunderground v.1.15,2013-04-11 17:47:00,
2013-04-11 10:52:00,68.7,29.4,29.92,SE,135,3.0,-999.0,23,0.00,,,0.00,Wunderground v.1.15,2013-04-11 17:52:00,
2013-04-11 10:57:00,69.4,28.9,29.92,ESE,113,3.0,-999.0,22,0.00,,,0.00,Wunderground v.1.15,2013-04-11 17:57:00,
2013-04-11 11:02:00,69.4,28.9,29.92,ESE,113,3.0,-999.0,22,0.00,,,0.00,Wunderground v.1.15,2013-04-11 18:02:00,
2013-04-11 11:07:00,69.4,30.0,29.91,ESE,113,4.0,-999.0,23,0.00,,,0.00,Wunderground v.1.15,2013-04-11 18:07:00,
2013-04-11 11:12:00,69.4,30.0,29.91,ESE,113,4.0,-999.0,23,0.00,,,0.00,Wunderground v.1.15,2013-04-11 18:12:00,
2013-04-11 11:17:00,69.9,29.3,29.90,East,90,5.0,-999.0,22,0.00,,,0.00,Wunderground v.1.15,2013-04-11 18:17:00,
2013-04-11 11:22:00,69.9,29.3,29.90,East,90,5.0,-999.0,22,0.00,,,0.00,Wunderground v.1.15,2013-04-11 18:22:00,
2013-04-11 11:27:00,70.3,28.5,29.90,East,90,3.0,-999.0,21,0.00,,,0.00,Wunderground v.1.15,2013-04-11 18:27:00,
2013-04-11 11:32:00,70.3,28.5,29.90,East,90,3.0,-999.0,21,0.00,,,0.00,Wunderground v.1.15,2013-04-11 18:32:00,
2013-04-11 11:37:00,71.1,28.0,29.90,East,90,4.0,-999.0,20,0.00,,,0.00,Wunderground v.1.15,2013-04-11 18:37:00,
2013-04-11 11:42:00,71.1,28.0,29.90,East,90,4.0,-999.0,20,0.00,,,0.00,Wunderground v.1.15,2013-04-11 18:42:00,
2013-04-11 11:47:00,71.2,28.0,29.89,NNE,23,3.0,-999.0,20,0.00,,,0.00,Wunderground v.1.15,2013-04-11 18:47:00,
2013-04-11 11:52:00,71.2,28.0,29.89,NNE,23,3.0,-999.0,20,0.00,,,0.00,Wunderground v.1.15,2013-04-11 18:52:00,
2013-04-11 11:57:00,71.7,28.5,29.88,NNE,23,2.0,-999.0,20,0.00,,,0.00,Wunderground v.1.15,2013-04-11 18:57:00,
2013-04-11 12:02:00,71.7,28.5,29.88,NNE,23,2.0,-999.0,20,0.00,,,0.00,Wunderground v.1.15,2013-04-11 19:02:00,
2013-04-11 12:07:00,72.6,27.9,29.88,NNE,23,0.0,-999.0,19,0.00,,,0.00,Wunderground v.1.15,2013-04-11 19:07:00,
2013-04-11 12:12:00,72.6,27.9,29.88,NNE,23,0.0,-999.0,19,0.00,,,0.00,Wunderground v.1.15,2013-04-11 19:12:00,
2013-04-11 12:17:00,73.7,27.5,29.87,NNE,23,2.0,-999.0,18,0.00,,,0.00,Wunderground v.1.15,2013-04-11 19:17:00,
2013-04-11 12:22:00,73.7,27.5,29.87,NNE,23,2.0,-999.0,18,0.00,,,0.00,Wunderground v.1.15,2013-04-11 19:22:00,
2013-04-11 12:27:00,73.5,28.7,29.86,NNE,23,2.0,-999.0,19,0.00,,,0.00,Wunderground v.1.15,2013-04-11 19:27:00,
2013-04-11 12:32:00,73.5,28.7,29.86,NNE,23,2.0,-999.0,19,0.00,,,0.00,Wunderground v.1.15,2013-04-11 19:32:00,
2013-04-11 12:37:00,73.6,28.8,29.86,NE,45,4.0,-999.0,19,0.00,,,0.00,Wunderground v.1.15,2013-04-11 19:37:00,
2013-04-11 12:42:00,73.6,28.8,29.86,NE,45,4.0,-999.0,19,0.00,,,0.00,Wunderground v.1.15,2013-04-11 19:42:00,
2013-04-11 12:47:00,73.1,28.4,29.86,NE,45,2.0,-999.0,19,0.00,,,0.00,Wunderground v.1.15,2013-04-11 19:47:00,
2013-04-11 12:52:00,73.1,28.4,29.86,NE,45,2.0,-999.0,19,0.00,,,0.00,Wunderground v.1.15,2013-04-11 19:52:00,
2013-04-11 12:57:00,73.6,27.4,29.86,NE,45,4.0,-999.0,18,0.00,,,0.00,Wunderground v.1.15,2013-04-11 19:57:00,
2013-04-11 13:02:00,73.6,27.4,29.86,NE,45,4.0,-999.0,18,0.00,,,0.00,Wunderground v.1.15,2013-04-11 20:02:00,
2013-04-11 13:07:00,73.9,27.7,29.85,NNE,23,2.0,-999.0,18,0.00,,,0.00,Wunderground v.1.15,2013-04-11 20:07:00,
2013-04-11 13:12:00,73.9,27.7,29.85,NNE,23,2.0,-999.0,18,0.00,,,0.00,Wunderground v.1.15,2013-04-11 20:12:00,
2013-04-11 13:17:00,75.0,27.2,29.85,NNE,23,2.0,-999.0,17,0.00,,,0.00,Wunderground v.1.15,2013-04-11 20:17:00,
2013-04-11 13:22:00,75.0,27.2,29.85,NNE,23,2.0,-999.0,17,0.00,,,0.00,Wunderground v.1.15,2013-04-11 20:22:00,
2013-04-11 13:27:00,75.4,27.5,29.84,NNE,23,3.0,-999.0,17,0.00,,,0.00,Wunderground v.1.15,2013-04-11 20:27:00,
2013-04-11 13:32:00,75.4,27.5,29.84,NNE,23,3.0,-999.0,17,0.00,,,0.00,Wunderground v.1.15,2013-04-11 20:32:00,
2013-04-11 13:37:00,75.4,27.5,29.83,North,0,2.0,-999.0,17,0.00,,,0.00,Wunderground v.1.15,2013-04-11 20:37:00,
2013-04-11 13:42:00,75.4,27.5,29.83,North,0,2.0,-999.0,17,0.00,,,0.00,Wunderground v.1.15,2013-04-11 20:42:00,
2013-04-11 13:47:00,75.6,27.7,29.83,North,0,3.0,-999.0,17,0.00,,,0.00,Wunderground v.1.15,2013-04-11 20:47:00,
2013-04-11 13:52:00,75.6,27.7,29.83,North,0,3.0,-999.0,17,0.00,,,0.00,Wunderground v.1.15,2013-04-11 20:52:00,
2013-04-11 13:57:00,76.7,28.6,29.82,NW,315,4.0,-999.0,17,0.00,,,0.00,Wunderground v.1.15,2013-04-11 20:57:00,
2013-04-11 14:02:00,76.7,28.6,29.82,NW,315,4.0,-999.0,17,0.00,,,0.00,Wunderground v.1.15,2013-04-11 21:02:00,
2013-04-11 14:07:00,77.1,27.4,29.82,NW,315,4.0,-999.0,16,0.00,,,0.00,Wunderground v.1.15,2013-04-11 21:07:00,
2013-04-11 14:12:00,77.1,27.4,29.82,NW,315,4.0,-999.0,16,0.00,,,0.00,Wunderground v.1.15,2013-04-11 21:12:00,
2013-04-11 14:17:00,76.7,27.1,29.82,NW,315,6.0,-999.0,16,0.00,,,0.00,Wunderground v.1.15,2013-04-11 21:17:00,
2013-04-11 14:22:00,76.7,27.1,29.82,NW,315,6.0,-999.0,16,0.00,,,0.00,Wunderground v.1.15,2013-04-11 21:22:00,
2013-04-11 14:27:00,76.8,27.2,29.81,NW,315,6.0,-999.0,16,0.00,,,0.00,Wunderground v.1.15,2013-04-11 21:27:00,
2013-04-11 14:32:00,76.8,27.2,29.81,NW,315,6.0,-999.0,16,0.00,,,0.00,Wunderground v.1.15,2013-04-11 21:32:00,
2013-04-11 14:37:00,77.0,25.8,29.80,NW,315,7.0,-999.0,15,0.00,,,0.00,Wunderground v.1.15,2013-04-11 21:37:00,
2013-04-11 14:42:00,77.0,25.8,29.80,NW,315,7.0,-999.0,15,0.00,,,0.00,Wunderground v.1.15,2013-04-11 21:42:00,
2013-04-11 14:47:00,76.8,25.6,29.79,NW,315,7.0,-999.0,15,0.00,,,0.00,Wunderground v.1.15,2013-04-11 21:47:00,
2013-04-11 14:52:00,76.8,25.6,29.79,NW,315,7.0,-999.0,15,0.00,,,0.00,Wunderground v.1.15,2013-04-11 21:52:00,
2013-04-11 14:57:00,76.9,24.0,29.78,NW,315,8.0,-999.0,14,0.00,,,0.00,Wunderground v.1.15,2013-04-11 21:57:00,
2013-04-11 15:02:00,76.9,24.0,29.78,NW,315,8.0,-999.0,14,0.00,,,0.00,Wunderground v.1.15,2013-04-11 22:02:00,
2013-04-11 15:07:00,77.5,26.2,29.78,NW,315,5.0,-999.0,15,0.00,,,0.00,Wunderground v.1.15,2013-04-11 22:07:00,
2013-04-11 15:12:00,77.5,26.2,29.78,NW,315,5.0,-999.0,15,0.00,,,0.00,Wunderground v.1.15,2013-04-11 22:12:00,
2013-04-11 15:17:00,78.2,25.1,29.78,NW,315,4.0,-999.0,14,0.00,,,0.00,Wunderground v.1.15,2013-04-11 22:17:00,
2013-04-11 15:22:00,78.2,25.1,29.78,NW,315,4.0,-999.0,14,0.00,,,0.00,Wunderground v.1.15,2013-04-11 22:22:00,
2013-04-11 15:27:00,77.2,25.9,29.77,NW,315,5.0,-999.0,15,0.00,,,0.00,Wunderground v.1.15,2013-04-11 22:27:00,
2013-04-11 15:32:00,77.2,25.9,29.77,NW,315,5.0,-999.0,15,0.00,,,0.00,Wunderground v.1.15,2013-04-11 22:32:00,
2013-04-11 15:37:00,77.7,26.3,29.77,NW,315,5.0,-999.0,15,0.00,,,0.00,Wunderground v.1.15,2013-04-11 22:37:00,
2013-04-11 15:42:00,77.7,26.3,29.77,NW,315,5.0,-999.0,15,0.00,,,0.00,Wunderground v.1.15,2013-04-11 22:42:00,
2013-04-11 15:47:00,78.7,25.5,29.76,NW,315,5.0,-999.0,14,0.00,,,0.00,Wunderground v.1.15,2013-04-11 22:47:00,
2013-04-11 15:52:00,78.7,25.5,29.76,NW,315,5.0,-999.0,14,0.00,,,0.00,Wunderground v.1.15,2013-04-11 22:52:00,
2013-04-11 15:57:00,78.4,25.2,29.77,WNW,293,7.0,-999.0,14,0.00,,,0.00,Wunderground v.1.15,2013-04-11 22:57:00,
2013-04-11 16:02:00,78.4,25.2,29.77,WNW,293,7.0,-999.0,14,0.00,,,0.00,Wunderground v.1.15,2013-04-11 23:02:00,
2013-04-11 16:07:00,77.7,26.3,29.76,NW,315,6.0,-999.0,15,0.00,,,0.00,Wunderground v.1.15,2013-04-11 23:07:00,
2013-04-11 16:12:00,77.7,26.3,29.76,NW,315,6.0,-999.0,15,0.00,,,0.00,Wunderground v.1.15,2013-04-11 23:12:00,
2013-04-11 16:17:00,77.4,24.4,29.76,NW,315,7.0,-999.0,14,0.00,,,0.00,Wunderground v.1.15,2013-04-11 23:17:00,
2013-04-11 16:22:00,77.4,24.4,29.76,NW,315,7.0,-999.0,14,0.00,,,0.00,Wunderground v.1.15,2013-04-11 23:22:00,
2013-04-11 16:27:00,77.7,24.7,29.75,NW,315,7.0,-999.0,14,0.00,,,0.00,Wunderground v.1.15,2013-04-11 23:27:00,
2013-04-11 16:32:00,77.7,24.7,29.75,NW,315,7.0,-999.0,14,0.00,,,0.00,Wunderground v.1.15,2013-04-11 23:32:00,
2013-04-11 16:37:00,77.9,24.8,29.75,NW,315,9.0,-999.0,14,0.00,,,0.00,Wunderground v.1.15,2013-04-11 23:37:00,
2013-04-11 16:42:00,77.9,24.8,29.75,NW,315,9.0,-999.0,14,0.00,,,0.00,Wunderground v.1.15,2013-04-11 23:42:00,
2013-04-11 16:47:00,77.6,24.6,29.75,WNW,293,6.0,-999.0,14,0.00,,,0.00,Wunderground v.1.15,2013-04-11 23:47:00,
2013-04-11 16:52:00,77.6,24.6,29.75,WNW,293,6.0,-999.0,14,0.00,,,0.00,Wunderground v.1.15,2013-04-11 23:52:00,
2013-04-11 16:57:00,77.5,24.5,29.75,NW,315,7.0,-999.0,14,0.00,,,0.00,Wunderground v.1.15,2013-04-11 23:57:00,
2013-04-11 17:02:00,77.5,24.5,29.75,NW,315,7.0,-999.0,14,0.00,,,0.00,Wunderground v.1.15,2013-04-12 00:02:00,
2013-04-11 17:07:00,76.8,24.0,29.75,NW,315,6.0,-999.0,14,0.00,,,0.00,Wunderground v.1.15,2013-04-12 00:07:00,
2013-04-11 17:12:00,76.8,24.0,29.75,NW,315,6.0,-999.0,14,0.00,,,0.00,Wunderground v.1.15,2013-04-12 00:12:00,
2013-04-11 17:17:00,76.3,23.6,29.74,NW,315,6.0,-999.0,14,0.00,,,0.00,Wunderground v.1.15,2013-04-12 00:17:00,
2013-04-11 17:22:00,76.3,23.6,29.74,NW,315,6.0,-999.0,14,0.00,,,0.00,Wunderground v.1.15,2013-04-12 00:22:00,
2013-04-11 17:27:00,76.5,23.7,29.74,NW,315,5.0,-999.0,14,0.00,,,0.00,Wunderground v.1.15,2013-04-12 00:27:00,
2013-04-11 17:32:00,76.5,23.7,29.74,NW,315,5.0,-999.0,14,0.00,,,0.00,Wunderground v.1.15,2013-04-12 00:32:00,
2013-04-11 17:37:00,76.3,23.6,29.74,NNW,338,5.0,-999.0,14,0.00,,,0.00,Wunderground v.1.15,2013-04-12 00:37:00,
2013-04-11 17:42:00,76.3,23.6,29.74,NNW,338,5.0,-999.0,14,0.00,,,0.00,Wunderground v.1.15,2013-04-12 00:42:00,
2013-04-11 17:47:00,76.1,23.4,29.74,NW,315,5.0,-999.0,14,0.00,,,0.00,Wunderground v.1.15,2013-04-12 00:47:00,
2013-04-11 17:52:00,76.1,23.4,29.74,NW,315,5.0,-999.0,14,0.00,,,0.00,Wunderground v.1.15,2013-04-12 00:52:00,
2013-04-11 17:57:00,75.8,23.2,29.74,NW,315,6.0,-999.0,14,0.00,,,0.00,Wunderground v.1.15,2013-04-12 00:57:00,
2013-04-11 18:02:00,75.8,23.2,29.74,NW,315,6.0,-999.0,14,0.00,,,0.00,Wunderground v.1.15,2013-04-12 01:02:00,
2013-04-11 18:07:00,75.5,24.6,29.74,NW,315,4.0,-999.0,15,0.00,,,0.00,Wunderground v.1.15,2013-04-12 01:07:00,
2013-04-11 18:12:00,75.5,24.6,29.74,NW,315,4.0,-999.0,15,0.00,,,0.00,Wunderground v.1.15,2013-04-12 01:12:00,
2013-04-11 18:17:00,75.2,24.3,29.74,NW,315,2.0,-999.0,15,0.00,,,0.00,Wunderground v.1.15,2013-04-12 01:17:00,
2013-04-11 18:22:00,75.2,24.3,29.74,NW,315,2.0,-999.0,15,0.00,,,0.00,Wunderground v.1.15,2013-04-12 01:22:00,
2013-04-11 18:27:00,74.8,24.0,29.74,NW,315,4.0,-999.0,15,0.00,,,0.00,Wunderground v.1.15,2013-04-12 01:27:00,
2013-04-11 18:32:00,74.8,24.0,29.74,NW,315,4.0,-999.0,15,0.00,,,0.00,Wunderground v.1.15,2013-04-12 01:32:00,
2013-04-11 18:37:00,74.4,23.7,29.73,NW,315,2.0,-999.0,15,0.00,,,0.00,Wunderground v.1.15,2013-04-12 01:37:00,
2013-04-11 18:42:00,74.4,23.7,29.73,NW,315,2.0,-999.0,15,0.00,,,0.00,Wunderground v.1.15,2013-04-12 01:42:00,
2013-04-11 18:47:00,73.8,24.8,29.73,NW,315,0.0,-999.0,16,0.00,,,0.00,Wunderground v.1.15,2013-04-12 01:47:00,
2013-04-11 18:52:00,73.8,24.8,29.73,NW,315,0.0,-999.0,16,0.00,,,0.00,Wunderground v.1.15,2013-04-12 01:52:00,
2013-04-11 18:57:00,73.0,25.6,29.73,NW,315,0.0,-999.0,17,0.00,,,0.00,Wunderground v.1.15,2013-04-12 01:57:00,
2013-04-11 19:02:00,73.0,25.6,29.73,NW,315,0.0,-999.0,17,0.00,,,0.00,Wunderground v.1.15,2013-04-12 02:02:00,
2013-04-11 19:07:00,72.0,26.1,29.73,N/A,-737280,0.0,-999.0,18,0.00,,,0.00,Wunderground v.1.15,2013-04-12 02:07:00,
2013-04-11 19:12:00,72.0,26.1,29.73,N/A,-737280,0.0,-999.0,18,0.00,,,0.00,Wunderground v.1.15,2013-04-12 02:12:00,
2013-04-11 19:17:00,70.7,25.1,29.73,N/A,-737280,0.0,-999.0,18,0.00,,,0.00,Wunderground v.1.15,2013-04-12 02:17:00,
2013-04-11 19:22:00,70.7,25.1,29.73,N/A,-737280,0.0,-999.0,18,0.00,,,0.00,Wunderground v.1.15,2013-04-12 02:22:00,
2013-04-11 19:27:00,69.2,26.4,29.74,N/A,-737280,0.0,-999.0,20,0.00,,,0.00,Wunderground v.1.15,2013-04-12 02:27:00,
2013-04-11 19:32:00,69.2,26.4,29.74,N/A,-737280,0.0,-999.0,20,0.00,,,0.00,Wunderground v.1.15,2013-04-12 02:32:00,
2013-04-11 19:37:00,67.8,27.5,29.74,N/A,-737280,0.0,-999.0,22,0.00,,,0.00,Wunderground v.1.15,2013-04-12 02:37:00,
2013-04-11 19:42:00,67.8,27.5,29.74,N/A,-737280,0.0,-999.0,22,0.00,,,0.00,Wunderground v.1.15,2013-04-12 02:42:00,
2013-04-11 19:47:00,66.8,26.7,29.74,N/A,-737280,0.0,-999.0,22,0.00,,,0.00,Wunderground v.1.15,2013-04-12 02:47:00,
2013-04-11 19:52:00,66.8,26.7,29.74,N/A,-737280,0.0,-999.0,22,0.00,,,0.00,Wunderground v.1.15,2013-04-12 02:52:00,
2013-04-11 19:57:00,66.2,26.2,29.74,N/A,-737280,0.0,-999.0,22,0.00,,,0.00,Wunderground v.1.15,2013-04-12 02:57:00,
2013-04-11 20:02:00,66.2,26.2,29.74,N/A,-737280,0.0,-999.0,22,0.00,,,0.00,Wunderground v.1.15,2013-04-12 03:02:00,
2013-04-11 20:07:00,65.9,27.0,29.75,NW,315,0.0,-999.0,23,0.00,,,0.00,Wunderground v.1.15,2013-04-12 03:07:00,
2013-04-11 20:12:00,65.9,27.0,29.75,NW,315,0.0,-999.0,23,0.00,,,0.00,Wunderground v.1.15,2013-04-12 03:12:00,
2013-04-11 20:17:00,65.8,26.9,29.75,N/A,-737280,0.0,-999.0,23,0.00,,,0.00,Wunderground v.1.15,2013-04-12 03:17:00,
2013-04-11 20:22:00,65.8,26.9,29.75,N/A,-737280,0.0,-999.0,23,0.00,,,0.00,Wunderground v.1.15,2013-04-12 03:22:00,
2013-04-11 20:27:00,65.9,27.0,29.75,NW,315,0.0,-999.0,23,0.00,,,0.00,Wunderground v.1.15,2013-04-12 03:27:00,
2013-04-11 20:32:00,65.9,27.0,29.75,NW,315,0.0,-999.0,23,0.00,,,0.00,Wunderground v.1.15,2013-04-12 03:32:00,
2013-04-11 20:37:00,66.6,26.5,29.75,NW,315,0.0,-999.0,22,0.00,,,0.00,Wunderground v.1.15,2013-04-12 03:37:00,
2013-04-11 20:42:00,66.6,26.5,29.75,NW,315,0.0,-999.0,22,0.00,,,0.00,Wunderground v.1.15,2013-04-12 03:42:00,
2013-04-11 20:47:00,67.2,27.0,29.75,NW,315,1.0,-999.0,22,0.00,,,0.00,Wunderground v.1.15,2013-04-12 03:47:00,
2013-04-11 20:52:00,67.2,27.0,29.75,NW,315,1.0,-999.0,22,0.00,,,0.00,Wunderground v.1.15,2013-04-12 03:52:00,
2013-04-11 20:57:00,67.6,27.4,29.75,NW,315,0.0,-999.0,22,0.00,,,0.00,Wunderground v.1.15,2013-04-12 03:57:00,
2013-04-11 21:02:00,67.6,27.4,29.75,NW,315,0.0,-999.0,22,0.00,,,0.00,Wunderground v.1.15,2013-04-12 04:02:00,
2013-04-11 21:07:00,67.6,27.4,29.75,NW,315,0.0,-999.0,22,0.00,,,0.00,Wunderground v.1.15,2013-04-12 04:07:00,
2013-04-11 21:12:00,67.6,27.4,29.75,NW,315,0.0,-999.0,22,0.00,,,0.00,Wunderground v.1.15,2013-04-12 04:12:00,
2013-04-11 21:17:00,67.5,27.3,29.76,N/A,-737280,0.0,-999.0,22,0.00,,,0.00,Wunderground v.1.15,2013-04-12 04:17:00,
2013-04-11 21:22:00,67.5,27.3,29.76,N/A,-737280,0.0,-999.0,22,0.00,,,0.00,Wunderground v.1.15,2013-04-12 04:22:00,
2013-04-11 21:27:00,67.3,26.0,29.75,N/A,-737280,0.0,-999.0,21,0.00,,,0.00,Wunderground v.1.15,2013-04-12 04:27:00,
2013-04-11 21:32:00,67.3,26.0,29.75,N/A,-737280,0.0,-999.0,21,0.00,,,0.00,Wunderground v.1.15,2013-04-12 04:32:00,
2013-04-11 21:37:00,67.3,27.1,29.76,N/A,-737280,0.0,-999.0,22,0.00,,,0.00,Wunderground v.1.15,2013-04-12 04:37:00,
2013-04-11 21:42:00,67.3,27.1,29.76,N/A,-737280,0.0,-999.0,22,0.00,,,0.00,Wunderground v.1.15,2013-04-12 04:42:00,
2013-04-11 21:47:00,66.8,27.8,29.75,NW,315,0.0,-999.0,23,0.00,,,0.00,Wunderground v.1.15,2013-04-12 04:47:00,
2013-04-11 21:52:00,66.8,27.8,29.75,NW,315,0.0,-999.0,23,0.00,,,0.00,Wunderground v.1.15,2013-04-12 04:52:00,
2013-04-11 21:57:00,66.2,27.3,29.75,N/A,-737280,0.0,-999.0,23,0.00,,,0.00,Wunderground v.1.15,2013-04-12 04:57:00,
2013-04-11 22:02:00,66.2,27.3,29.75,N/A,-737280,0.0,-999.0,23,0.00,,,0.00,Wunderground v.1.15,2013-04-12 05:02:00,
2013-04-11 22:07:00,65.7,26.9,29.75,NW,315,0.0,-999.0,23,0.00,,,0.00,Wunderground v.1.15,2013-04-12 05:07:00,
2013-04-11 22:12:00,65.7,26.9,29.75,NW,315,0.0,-999.0,23,0.00,,,0.00,Wunderground v.1.15,2013-04-12 05:12:00,
2013-04-11 22:17:00,65.4,27.6,29.75,N/A,-737280,0.0,-999.0,24,0.00,,,0.00,Wunderground v.1.15,2013-04-12 05:17:00,
2013-04-11 22:22:00,65.4,27.6,29.75,N/A,-737280,0.0,-999.0,24,0.00,,,0.00,Wunderground v.1.15,2013-04-12 05:22:00,
2013-04-11 22:27:00,64.6,27.9,29.75,N/A,-737280,0.0,-999.0,25,0.00,,,0.00,Wunderground v.1.15,2013-04-12 05:27:00,
2013-04-11 22:32:00,64.6,27.9,29.75,N/A,-737280,0.0,-999.0,25,0.00,,,0.00,Wunderground v.1.15,2013-04-12 05:32:00,
2013-04-11 22:37:00,63.6,28.1,29.75,N/A,-737280,0.0,-999.0,26,0.00,,,0.00,Wunderground v.1.15,2013-04-12 05:37:00,
2013-04-11 22:42:00,63.6,28.1,29.75,N/A,-737280,0.0,-999.0,26,0.00,,,0.00,Wunderground v.1.15,2013-04-12 05:42:00,
2013-04-11 22:47:00,63.2,27.7,29.75,NW,315,0.0,-999.0,26,0.00,,,0.00,Wunderground v.1.15,2013-04-12 05:47:00,
2013-04-11 22:52:00,63.2,27.7,29.75,NW,315,0.0,-999.0,26,0.00,,,0.00,Wunderground v.1.15,2013-04-12 05:52:00,
2013-04-11 22:57:00,63.2,28.6,29.74,NW,315,0.0,-999.0,27,0.00,,,0.00,Wunderground v.1.15,2013-04-12 05:57:00,
2013-04-11 23:02:00,63.2,28.6,29.74,NW,315,0.0,-999.0,27,0.00,,,0.00,Wunderground v.1.15,2013-04-12 06:02:00,
2013-04-11 23:07:00,62.8,28.3,29.74,N/A,-737280,0.0,-999.0,27,0.00,,,0.00,Wunderground v.1.15,2013-04-12 06:07:00,
2013-04-11 23:12:00,62.8,28.3,29.74,N/A,-737280,0.0,-999.0,27,0.00,,,0.00,Wunderground v.1.15,2013-04-12 06:12:00,
2013-04-11 23:17:00,62.5,28.0,29.74,N/A,-737280,0.0,-999.0,27,0.00,,,0.00,Wunderground v.1.15,2013-04-12 06:17:00,
2013-04-11 23:22:00,62.5,28.0,29.74,N/A,-737280,0.0,-999.0,27,0.00,,,0.00,Wunderground v.1.15,2013-04-12 06:22:00,
2013-04-11 23:27:00,62.2,28.7,29.75,N/A,-737280,0.0,-999.0,28,0.00,,,0.00,Wunderground v.1.15,2013-04-12 06:27:00,
2013-04-11 23:32:00,62.2,28.7,29.75,N/A,-737280,0.0,-999.0,28,0.00,,,0.00,Wunderground v.1.15,2013-04-12 06:32:00,
2013-04-11 23:37:00,61.8,28.3,29.75,N/A,-737280,0.0,-999.0,28,0.00,,,0.00,Wunderground v.1.15,2013-04-12 06:37:00,
2013-04-11 23:42:00,61.8,28.3,29.75,N/A,-737280,0.0,-999.0,28,0.00,,,0.00,Wunderground v.1.15,2013-04-12 06:42:00,
2013-04-11 23:47:00,61.5,28.9,29.75,N/A,-737280,0.0,-999.0,29,0.00,,,0.00,Wunderground v.1.15,2013-04-12 06:47:00,
2013-04-11 23:52:00,61.5,28.9,29.75,N/A,-737280,0.0,-999.0,29,0.00,,,0.00,Wunderground v.1.15,2013-04-12 06:52:00,
2013-04-11 23:57:00,60.6,29.0,29.75,N/A,-737280,0.0,-999.0,30,0.00,,,0.00,Wunderground v.1.15,2013-04-12 06:57:00,